Time,TemperatureF,DewpointF,PressureIn,WindDirection,WindDirectionDegrees,WindSpeedMPH,WindSpeedGustMPH,Humidity,HourlyPrecipIn,Conditions,Clouds,dailyrainin,SoftwareType,DateUTC
2013-07-12 00:00:00,72.1,72.0,29.95,NW,315,5.4,5.4,100,0.00,,,0.00,Rainwise IP-100,2013-07-12 04:00:00,
2013-07-12 00:01:00,72.1,72.0,29.95,NW,315,4.0,5.4,100,0.00,,,0.00,Rainwise IP-100,2013-07-12 04:01:00,
2013-07-12 00:06:00,72.1,72.0,29.96,North,360,4.9,7.2,100,0.00,,,0.00,Rainwise IP-100,2013-07-12 04:06:00,
2013-07-12 00:11:00,72.1,72.0,29.95,NW,315,0.0,5.6,100,0.00,,,0.00,Rainwise IP-100,2013-07-12 04:11:00,
2013-07-12 00:16:00,72.1,72.0,29.95,NW,315,1.9,3.3,100,0.00,,,0.00,Rainwise IP-100,2013-07-12 04:16:00,
2013-07-12 00:21:00,72.1,72.0,29.95,NW,315,2.6,2.6,100,0.00,,,0.00,Rainwise IP-100,2013-07-12 04:21:00,
2013-07-12 00:26:00,72.2,72.3,29.96,NW,315,0.0,3.0,100,0.00,,,0.00,Rainwise IP-100,2013-07-12 04:26:00,
2013-07-12 00:31:00,72.2,72.3,29.96,NW,315,0.0,3.5,100,0.00,,,0.00,Rainwise IP-100,2013-07-12 04:31:00,
2013-07-12 00:36:00,72.2,72.3,29.96,NW,315,2.3,3.0,100,0.00,,,0.00,Rainwise IP-100,2013-07-12 04:36:00,
2013-07-12 00:41:00,72.1,72.0,29.95,NW,315,1.2,3.7,100,0.00,,,0.00,Rainwise IP-100,2013-07-12 04:41:00,
2013-07-12 00:46:00,72.0,72.0,29.96,NW,315,0.0,4.7,100,0.00,,,0.00,Rainwise IP-100,2013-07-12 04:46:00,
2013-07-12 00:51:00,72.0,72.0,29.95,NW,315,1.9,4.7,100,0.00,,,0.00,Rainwise IP-100,2013-07-12 04:51:00,
2013-07-12 00:56:00,72.1,72.0,29.95,NW,315,1.9,3.0,100,0.00,,,0.00,Rainwise IP-100,2013-07-12 04:56:00,
2013-07-12 01:01:00,72.0,72.0,29.95,NW,315,1.6,2.8,100,0.00,,,0.00,Rainwise IP-100,2013-07-12 05:01:00,
2013-07-12 01:06:00,72.0,72.0,29.95,NW,315,2.1,2.8,100,0.00,,,0.00,Rainwise IP-100,2013-07-12 05:06:00,
2013-07-12 01:10:00,72.0,72.0,29.96,NW,315,2.6,4.0,100,0.00,,,0.00,Rainwise IP-100,2013-07-12 05:10:00,
2013-07-12 01:15:00,71.9,72.0,29.96,NW,315,0.0,3.5,100,0.00,,,0.00,Rainwise IP-100,2013-07-12 05:15:00,
2013-07-12 01:20:00,71.9,72.0,29.95,NW,315,0.0,1.4,100,0.00,,,0.00,Rainwise IP-100,2013-07-12 05:20:00,
2013-07-12 01:26:00,71.9,72.0,29.96,NW,315,1.4,2.3,100,0.00,,,0.00,Rainwise IP-100,2013-07-12 05:26:00,
2013-07-12 01:31:00,71.9,72.0,29.96,NW,315,1.2,2.1,100,0.00,,,0.00,Rainwise IP-100,2013-07-12 05:31:00,
2013-07-12 01:36:00,71.8,71.7,29.96,NW,315,2.1,2.1,100,0.00,,,0.00,Rainwise IP-100,2013-07-12 05:36:00,
2013-07-12 01:41:00,71.9,72.0,29.96,NW,315,1.9,2.8,100,0.00,,,0.00,Rainwise IP-100,2013-07-12 05:41:00,
2013-07-12 01:46:00,72.0,72.0,29.96,NW,315,3.7,3.7,100,0.00,,,0.00,Rainwise IP-100,2013-07-12 05:46:00,
2013-07-12 01:51:00,71.9,72.0,29.96,NW,315,2.6,3.7,100,0.00,,,0.00,Rainwise IP-100,2013-07-12 05:51:00,
2013-07-12 01:56:00,71.9,72.0,29.96,NW,315,1.6,3.0,100,0.00,,,0.00,Rainwise IP-100,2013-07-12 05:56:00,
2013-07-12 02:01:00,71.9,72.0,29.96,NW,315,0.0,2.6,100,0.00,,,0.00,Rainwise IP-100,2013-07-12 06:01:00,
2013-07-12 02:06:00,71.9,72.0,29.96,NW,315,1.9,2.8,100,0.00,,,0.00,Rainwise IP-100,2013-07-12 06:06:00,
2013-07-12 02:11:00,71.9,72.0,29.96,NW,315,1.2,1.9,100,0.00,,,0.00,Rainwise IP-100,2013-07-12 06:11:00,
2013-07-12 02:16:00,71.9,72.0,29.97,NW,315,1.4,2.6,100,0.00,,,0.00,Rainwise IP-100,2013-07-12 06:16:00,
2013-07-12 02:21:00,71.9,72.0,29.96,NW,315,1.6,2.6,100,0.00,,,0.00,Rainwise IP-100,2013-07-12 06:21:00,
2013-07-12 02:26:00,72.0,72.0,29.96,NW,315,1.9,3.7,100,0.00,,,0.00,Rainwise IP-100,2013-07-12 06:26:00,
2013-07-12 02:31:00,72.0,72.0,29.96,NW,315,2.1,3.5,100,0.00,,,0.00,Rainwise IP-100,2013-07-12 06:31:00,
2013-07-12 02:36:00,72.0,72.0,29.96,NW,315,1.6,2.8,100,0.00,,,0.00,Rainwise IP-100,2013-07-12 06:36:00,
2013-07-12 02:41:00,71.9,72.0,29.97,NW,315,1.2,3.0,100,0.00,,,0.00,Rainwise IP-100,2013-07-12 06:41:00,
2013-07-12 02:46:00,71.9,72.0,29.97,NW,315,1.4,2.8,100,0.00,,,0.00,Rainwise IP-100,2013-07-12 06:46:00,
2013-07-12 02:51:00,72.0,72.0,29.97,NW,315,3.3,4.7,100,0.00,,,0.00,Rainwise IP-100,2013-07-12 06:51:00,
2013-07-12 02:56:00,72.1,72.0,29.97,NW,315,1.9,4.9,100,0.00,,,0.00,Rainwise IP-100,2013-07-12 06:56:00,
2013-07-12 03:01:00,72.1,72.0,29.98,NW,315,3.0,5.1,100,0.00,,,0.00,Rainwise IP-100,2013-07-12 07:01:00,
2013-07-12 03:06:00,72.1,72.0,29.98,NNW,337,3.0,4.7,100,0.00,,,0.00,Rainwise IP-100,2013-07-12 07:06:00,
2013-07-12 03:11:00,72.2,72.3,29.98,NW,315,4.4,5.8,100,0.00,,,0.00,Rainwise IP-100,2013-07-12 07:11:00,
2013-07-12 03:16:00,72.2,72.3,29.98,NW,315,3.0,7.0,100,0.00,,,0.00,Rainwise IP-100,2013-07-12 07:16:00,
2013-07-12 03:21:00,72.2,72.3,29.99,NW,315,4.7,9.3,100,0.00,,,0.00,Rainwise IP-100,2013-07-12 07:21:00,
2013-07-12 03:26:00,72.4,72.3,29.99,NE,45,1.2,7.0,100,0.00,,,0.00,Rainwise IP-100,2013-07-12 07:26:00,
2013-07-12 03:30:00,72.4,72.3,29.99,NNW,337,4.9,8.6,100,0.00,,,0.00,Rainwise IP-100,2013-07-12 07:30:00,
2013-07-12 03:35:00,72.3,72.3,29.99,NW,315,4.4,7.9,100,0.00,,,0.00,Rainwise IP-100,2013-07-12 07:35:00,
2013-07-12 03:40:00,72.4,72.3,29.99,North,360,3.7,6.8,100,0.00,,,0.00,Rainwise IP-100,2013-07-12 07:40:00,
2013-07-12 03:45:00,72.5,72.7,29.99,NW,315,6.8,8.2,100,0.00,,,0.00,Rainwise IP-100,2013-07-12 07:45:00,
2013-07-12 03:50:00,72.5,72.7,29.99,NW,315,0.0,8.2,100,0.00,,,0.00,Rainwise IP-100,2013-07-12 07:50:00,
2013-07-12 03:55:00,72.5,72.7,30.00,NW,315,0.0,6.5,100,0.00,,,0.00,Rainwise IP-100,2013-07-12 07:55:00,
2013-07-12 04:00:00,72.5,72.7,30.00,NW,315,1.9,7.5,100,0.00,,,0.00,Rainwise IP-100,2013-07-12 08:00:00,
2013-07-12 04:05:00,72.5,72.7,30.00,NW,315,5.8,7.9,100,0.00,,,0.00,Rainwise IP-100,2013-07-12 08:05:00,
2013-07-12 04:10:00,72.4,72.3,30.00,NW,315,3.7,10.5,100,0.00,,,0.00,Rainwise IP-100,2013-07-12 08:10:00,
2013-07-12 04:15:00,72.3,72.3,29.99,NW,315,5.8,10.0,100,0.00,,,0.00,Rainwise IP-100,2013-07-12 08:15:00,
2013-07-12 04:20:00,72.2,72.3,30.00,NW,315,6.5,8.2,100,0.00,,,0.00,Rainwise IP-100,2013-07-12 08:20:00,
2013-07-12 04:25:00,72.1,72.0,30.00,NW,315,9.1,9.1,100,0.00,,,0.00,Rainwise IP-100,2013-07-12 08:25:00,
2013-07-12 04:30:00,71.8,71.7,30.00,NW,315,1.9,9.1,100,0.00,,,0.00,Rainwise IP-100,2013-07-12 08:30:00,
2013-07-12 04:35:00,71.7,71.7,30.01,NW,315,3.5,7.7,100,0.00,,,0.00,Rainwise IP-100,2013-07-12 08:35:00,
2013-07-12 04:40:00,71.7,71.7,30.00,NW,315,2.6,6.5,100,0.00,,,0.00,Rainwise IP-100,2013-07-12 08:40:00,
2013-07-12 04:45:00,71.7,71.7,30.00,NW,315,7.0,7.0,100,0.00,,,0.00,Rainwise IP-100,2013-07-12 08:45:00,
2013-07-12 04:50:00,71.7,71.7,30.01,NW,315,0.0,7.7,100,0.00,,,0.00,Rainwise IP-100,2013-07-12 08:50:00,
2013-07-12 04:55:00,71.7,71.7,30.01,North,360,2.8,4.2,100,0.00,,,0.00,Rainwise IP-100,2013-07-12 08:55:00,
2013-07-12 05:00:00,71.6,71.7,30.01,NE,45,1.9,9.1,100,0.00,,,0.00,Rainwise IP-100,2013-07-12 09:00:00,
2013-07-12 05:05:00,71.6,71.7,30.01,NE,45,0.0,7.5,100,0.00,,,0.00,Rainwise IP-100,2013-07-12 09:05:00,
2013-07-12 05:10:00,71.6,71.7,30.01,NW,315,0.0,5.8,100,0.00,,,0.00,Rainwise IP-100,2013-07-12 09:10:00,
2013-07-12 05:15:00,71.6,71.7,30.02,NW,315,0.0,6.1,100,0.00,,,0.00,Rainwise IP-100,2013-07-12 09:15:00,
2013-07-12 05:20:00,71.6,71.7,30.02,NE,45,4.7,6.1,100,0.00,,,0.00,Rainwise IP-100,2013-07-12 09:20:00,
2013-07-12 05:25:00,71.5,71.7,30.02,NE,45,0.0,6.3,100,0.00,,,0.00,Rainwise IP-100,2013-07-12 09:25:00,
2013-07-12 05:30:00,71.4,71.3,30.02,NE,45,2.6,5.8,100,0.00,,,0.00,Rainwise IP-100,2013-07-12 09:30:00,
2013-07-12 05:35:00,71.4,71.3,30.02,NE,45,0.0,7.5,100,0.00,,,0.00,Rainwise IP-100,2013-07-12 09:35:00,
2013-07-12 05:40:00,71.4,71.3,30.02,NE,45,6.8,6.8,100,0.00,,,0.00,Rainwise IP-100,2013-07-12 09:40:00,
2013-07-12 05:45:00,71.3,71.3,30.02,NW,315,1.2,7.2,100,0.00,,,0.00,Rainwise IP-100,2013-07-12 09:45:00,
2013-07-12 05:50:00,71.3,71.3,30.03,NW,315,2.3,3.5,100,0.00,,,0.00,Rainwise IP-100,2013-07-12 09:50:00,
2013-07-12 05:55:00,71.3,71.3,30.02,NW,315,0.0,9.1,100,0.00,,,0.00,Rainwise IP-100,2013-07-12 09:55:00,
2013-07-12 06:00:00,71.2,71.3,30.03,NW,315,5.8,8.2,100,0.00,,,0.00,Rainwise IP-100,2013-07-12 10:00:00,
2013-07-12 06:05:00,71.2,71.3,30.03,NW,315,4.0,5.8,100,0.00,,,0.00,Rainwise IP-100,2013-07-12 10:05:00,
2013-07-12 06:10:00,71.1,71.0,30.03,NW,315,3.7,5.1,100,0.00,,,0.00,Rainwise IP-100,2013-07-12 10:10:00,
2013-07-12 06:15:00,71.0,71.0,30.03,NW,315,1.4,6.8,100,0.00,,,0.00,Rainwise IP-100,2013-07-12 10:15:00,
2013-07-12 06:20:00,71.0,71.0,30.03,NE,45,0.0,5.8,100,0.00,,,0.00,Rainwise IP-100,2013-07-12 10:20:00,
2013-07-12 06:25:00,70.9,71.0,30.03,NE,45,1.9,6.1,100,0.00,,,0.00,Rainwise IP-100,2013-07-12 10:25:00,
2013-07-12 06:30:00,70.9,71.0,30.04,North,360,1.4,5.8,100,0.00,,,0.00,Rainwise IP-100,2013-07-12 10:30:00,
2013-07-12 06:35:00,70.9,71.0,30.04,NE,45,1.6,9.6,100,0.00,,,0.00,Rainwise IP-100,2013-07-12 10:35:00,
2013-07-12 06:40:00,70.9,71.0,30.04,NE,45,0.0,4.2,100,0.00,,,0.00,Rainwise IP-100,2013-07-12 10:40:00,
2013-07-12 06:45:00,71.0,71.0,30.04,SE,135,3.3,7.2,100,0.00,,,0.00,Rainwise IP-100,2013-07-12 10:45:00,
2013-07-12 06:50:00,71.0,71.0,30.04,North,360,3.3,7.7,100,0.00,,,0.00,Rainwise IP-100,2013-07-12 10:50:00,
2013-07-12 06:55:00,71.0,71.0,30.04,NW,315,1.9,7.7,100,0.00,,,0.00,Rainwise IP-100,2013-07-12 10:55:00,
2013-07-12 07:00:00,71.1,71.0,30.05,NE,45,3.3,8.4,100,0.00,,,0.00,Rainwise IP-100,2013-07-12 11:00:00,
2013-07-12 07:05:00,71.2,71.3,30.04,NW,315,2.1,7.7,100,0.00,,,0.00,Rainwise IP-100,2013-07-12 11:05:00,
2013-07-12 07:10:00,71.3,71.3,30.05,NE,45,0.0,11.4,100,0.00,,,0.00,Rainwise IP-100,2013-07-12 11:10:00,
2013-07-12 07:15:00,71.4,71.3,30.05,NNW,337,0.0,8.4,100,0.00,,,0.00,Rainwise IP-100,2013-07-12 11:15:00,
2013-07-12 07:20:00,71.4,71.3,30.05,NE,45,1.6,7.2,100,0.00,,,0.00,Rainwise IP-100,2013-07-12 11:20:00,
2013-07-12 07:25:00,71.5,71.7,30.06,NNW,337,0.0,9.1,100,0.00,,,0.00,Rainwise IP-100,2013-07-12 11:25:00,
2013-07-12 07:30:00,71.5,71.7,30.06,NNW,337,0.0,4.7,100,0.00,,,0.00,Rainwise IP-100,2013-07-12 11:30:00,
2013-07-12 07:35:00,71.6,71.7,30.06,NNW,337,3.3,6.8,100,0.00,,,0.00,Rainwise IP-100,2013-07-12 11:35:00,
2013-07-12 07:40:00,71.7,71.7,30.06,North,360,4.4,7.0,100,0.00,,,0.00,Rainwise IP-100,2013-07-12 11:40:00,
2013-07-12 07:45:00,71.6,71.7,30.06,NNE,22,1.4,9.6,100,0.00,,,0.00,Rainwise IP-100,2013-07-12 11:45:00,
2013-07-12 07:50:00,71.6,71.7,30.07,ESE,112,0.0,6.5,100,0.00,,,0.00,Rainwise IP-100,2013-07-12 11:50:00,
2013-07-12 07:55:00,71.6,71.7,30.07,NNW,337,1.2,6.1,100,0.00,,,0.00,Rainwise IP-100,2013-07-12 11:55:00,
2013-07-12 08:00:00,71.6,71.7,30.06,WNW,292,1.9,7.5,100,0.00,,,0.00,Rainwise IP-100,2013-07-12 12:00:00,
2013-07-12 08:05:00,71.6,71.7,30.07,ENE,67,1.2,8.2,100,0.00,,,0.00,Rainwise IP-100,2013-07-12 12:05:00,
2013-07-12 08:10:00,71.5,71.7,30.07,NNW,337,7.7,8.6,100,0.00,,,0.00,Rainwise IP-100,2013-07-12 12:10:00,
2013-07-12 08:15:00,71.5,71.7,30.07,WSW,247,1.6,10.3,100,0.00,,,0.00,Rainwise IP-100,2013-07-12 12:15:00,
2013-07-12 08:20:00,71.4,71.3,30.07,NE,45,0.0,7.2,100,0.00,,,0.00,Rainwise IP-100,2013-07-12 12:20:00,
2013-07-12 08:25:00,71.5,71.7,30.08,NNW,337,0.0,7.7,100,0.00,,,0.00,Rainwise IP-100,2013-07-12 12:25:00,
2013-07-12 08:30:00,71.6,71.7,30.07,NNW,337,5.4,9.8,100,0.00,,,0.00,Rainwise IP-100,2013-07-12 12:30:00,
2013-07-12 08:35:00,71.6,71.7,30.07,ESE,112,2.6,7.0,100,0.00,,,0.00,Rainwise IP-100,2013-07-12 12:35:00,
2013-07-12 08:40:00,71.6,71.7,30.07,NNW,337,2.6,7.0,100,0.00,,,0.00,Rainwise IP-100,2013-07-12 12:40:00,
2013-07-12 08:45:00,71.6,71.7,30.07,SSW,202,1.6,10.3,100,0.00,,,0.00,Rainwise IP-100,2013-07-12 12:45:00,
2013-07-12 08:50:00,71.6,71.7,30.07,NNE,22,5.6,7.0,100,0.00,,,0.00,Rainwise IP-100,2013-07-12 12:50:00,
2013-07-12 08:55:00,71.7,71.7,30.07,WNW,292,2.6,7.9,100,0.00,,,0.00,Rainwise IP-100,2013-07-12 12:55:00,
2013-07-12 09:00:00,72.0,72.0,30.08,ESE,112,0.0,5.8,100,0.00,,,0.00,Rainwise IP-100,2013-07-12 13:00:00,
2013-07-12 09:05:00,72.2,72.3,30.08,WNW,292,1.6,4.0,100,0.00,,,0.00,Rainwise IP-100,2013-07-12 13:05:00,
2013-07-12 09:10:00,72.5,72.7,30.08,NNW,337,6.5,7.7,100,0.00,,,0.00,Rainwise IP-100,2013-07-12 13:10:00,
2013-07-12 09:15:00,72.7,72.7,30.08,NNE,22,4.7,9.1,100,0.00,,,0.00,Rainwise IP-100,2013-07-12 13:15:00,
2013-07-12 09:20:00,72.7,72.7,30.08,NE,45,2.1,5.1,100,0.00,,,0.00,Rainwise IP-100,2013-07-12 13:20:00,
2013-07-12 09:25:00,72.9,73.0,30.08,NNE,22,7.0,7.0,100,0.00,,,0.00,Rainwise IP-100,2013-07-12 13:25:00,
2013-07-12 09:30:00,73.1,72.7,30.08,WNW,292,3.5,8.4,99,0.00,,,0.00,Rainwise IP-100,2013-07-12 13:30:00,
2013-07-12 09:35:00,73.1,72.7,30.08,NNE,22,4.0,10.3,99,0.00,,,0.00,Rainwise IP-100,2013-07-12 13:35:00,
2013-07-12 09:40:00,72.9,72.7,30.08,WNW,292,3.0,10.3,99,0.00,,,0.00,Rainwise IP-100,2013-07-12 13:40:00,
2013-07-12 09:45:00,72.6,72.3,30.08,NNW,337,7.9,8.9,99,0.00,,,0.00,Rainwise IP-100,2013-07-12 13:45:00,
2013-07-12 09:50:00,72.5,72.3,30.09,ESE,112,1.9,12.6,99,0.00,,,0.00,Rainwise IP-100,2013-07-12 13:50:00,
2013-07-12 09:55:00,72.4,72.0,30.09,WNW,292,2.8,7.9,99,0.00,,,0.00,Rainwise IP-100,2013-07-12 13:55:00,
2013-07-12 10:00:00,72.7,72.0,30.09,NNW,337,6.3,7.7,98,0.00,,,0.00,Rainwise IP-100,2013-07-12 14:00:00,
2013-07-12 10:02:00,72.7,72.0,30.09,NNW,337,4.9,7.0,98,0.00,,,0.00,Rainwise IP-100,2013-07-12 14:02:00,
2013-07-12 10:07:00,72.9,72.3,30.10,NW,315,4.7,7.7,98,0.00,,,0.00,Rainwise IP-100,2013-07-12 14:07:00,
2013-07-12 10:12:00,73.0,72.3,30.10,NNW,337,1.9,10.0,97,0.00,,,0.00,Rainwise IP-100,2013-07-12 14:12:00,
2013-07-12 10:17:00,73.2,72.7,30.10,NNW,337,0.0,8.2,97,0.00,,,0.00,Rainwise IP-100,2013-07-12 14:17:00,
2013-07-12 10:22:00,73.4,72.3,30.10,NW,315,4.7,7.0,96,0.00,,,0.00,Rainwise IP-100,2013-07-12 14:22:00,
2013-07-12 10:27:00,73.5,72.7,30.10,NNW,337,0.0,12.1,96,0.00,,,0.00,Rainwise IP-100,2013-07-12 14:27:00,
2013-07-12 10:32:00,73.7,72.7,30.10,WNW,292,5.4,9.6,96,0.00,,,0.00,Rainwise IP-100,2013-07-12 14:32:00,
2013-07-12 10:37:00,73.7,72.3,30.10,NNW,337,2.8,12.4,95,0.00,,,0.00,Rainwise IP-100,2013-07-12 14:37:00,
2013-07-12 10:42:00,73.5,72.3,30.11,NNW,337,2.1,8.9,95,0.00,,,0.00,Rainwise IP-100,2013-07-12 14:42:00,
2013-07-12 10:47:00,73.4,72.0,30.10,NNE,22,2.8,10.7,95,0.00,,,0.00,Rainwise IP-100,2013-07-12 14:47:00,
2013-07-12 10:52:00,73.6,72.3,30.10,WNW,292,2.6,10.7,95,0.00,,,0.00,Rainwise IP-100,2013-07-12 14:52:00,
2013-07-12 10:57:00,73.8,72.0,30.11,NW,315,7.2,11.9,94,0.00,,,0.00,Rainwise IP-100,2013-07-12 14:57:00,
2013-07-12 11:02:00,73.7,72.0,30.11,WNW,292,8.9,12.6,94,0.00,,,0.00,Rainwise IP-100,2013-07-12 15:02:00,
2013-07-12 11:07:00,73.4,71.7,30.11,WNW,292,7.9,14.5,94,0.00,,,0.00,Rainwise IP-100,2013-07-12 15:07:00,
2013-07-12 11:12:00,73.2,71.7,30.12,NNW,337,7.2,13.1,94,0.00,,,0.00,Rainwise IP-100,2013-07-12 15:12:00,
2013-07-12 11:17:00,73.1,71.3,30.12,WNW,292,9.8,13.1,94,0.00,,,0.00,Rainwise IP-100,2013-07-12 15:17:00,
2013-07-12 11:22:00,73.2,71.7,30.11,WNW,292,4.9,15.6,94,0.00,,,0.00,Rainwise IP-100,2013-07-12 15:22:00,
2013-07-12 11:27:00,73.6,72.0,30.11,NW,315,9.8,11.0,94,0.00,,,0.00,Rainwise IP-100,2013-07-12 15:27:00,
2013-07-12 11:32:00,73.6,71.7,30.12,NNE,22,1.9,16.3,93,0.00,,,0.00,Rainwise IP-100,2013-07-12 15:32:00,
2013-07-12 11:37:00,73.3,71.3,30.12,North,360,4.7,16.8,93,0.00,,,0.00,Rainwise IP-100,2013-07-12 15:37:00,
2013-07-12 11:42:00,73.0,71.0,30.12,NNE,22,3.7,12.8,93,0.00,,,0.00,Rainwise IP-100,2013-07-12 15:42:00,
2013-07-12 11:47:00,72.8,70.5,30.12,ESE,112,0.0,9.6,93,0.00,,,0.00,Rainwise IP-100,2013-07-12 15:47:00,
2013-07-12 11:52:00,73.0,71.0,30.12,NE,45,2.3,6.3,93,0.00,,,0.00,Rainwise IP-100,2013-07-12 15:52:00,
2013-07-12 11:57:00,73.0,71.0,30.12,WNW,292,6.1,10.7,93,0.00,,,0.00,Rainwise IP-100,2013-07-12 15:57:00,
2013-07-12 12:02:00,72.5,70.5,30.13,NNE,22,5.6,13.1,93,0.00,,,0.00,Rainwise IP-100,2013-07-12 16:02:00,
2013-07-12 12:07:00,72.2,70.0,30.13,WNW,292,4.9,12.8,93,0.00,,,0.00,Rainwise IP-100,2013-07-12 16:07:00,
2013-07-12 12:12:00,72.1,70.0,30.13,WSW,247,0.0,13.3,94,0.00,,,0.00,Rainwise IP-100,2013-07-12 16:12:00,
2013-07-12 12:17:00,72.2,70.5,30.13,NNW,337,2.3,7.2,94,0.00,,,0.00,Rainwise IP-100,2013-07-12 16:17:00,
2013-07-12 12:22:00,72.6,71.0,30.13,NNE,22,2.1,7.7,94,0.00,,,0.00,Rainwise IP-100,2013-07-12 16:22:00,
2013-07-12 12:27:00,72.7,70.5,30.12,NW,315,6.3,10.5,93,0.00,,,0.00,Rainwise IP-100,2013-07-12 16:27:00,
2013-07-12 12:32:00,72.6,70.5,30.12,SE,135,0.0,9.6,93,0.00,,,0.00,Rainwise IP-100,2013-07-12 16:32:00,
2013-07-12 12:37:00,72.6,70.5,30.12,NNE,22,2.3,12.8,93,0.00,,,0.00,Rainwise IP-100,2013-07-12 16:37:00,
2013-07-12 12:42:00,72.7,70.5,30.12,NNE,22,1.9,10.0,93,0.00,,,0.00,Rainwise IP-100,2013-07-12 16:42:00,
2013-07-12 12:47:00,72.5,70.5,30.12,WNW,292,1.9,11.9,93,0.00,,,0.00,Rainwise IP-100,2013-07-12 16:47:00,
2013-07-12 12:52:00,72.6,70.5,30.12,ENE,67,2.1,12.8,93,0.00,,,0.00,Rainwise IP-100,2013-07-12 16:52:00,
2013-07-12 12:57:00,72.7,70.5,30.12,NNW,337,6.1,15.2,93,0.00,,,0.00,Rainwise IP-100,2013-07-12 16:57:00,
2013-07-12 13:02:00,72.6,70.5,30.12,NNW,337,0.0,11.0,93,0.00,,,0.00,Rainwise IP-100,2013-07-12 17:02:00,
2013-07-12 13:07:00,72.3,70.5,30.12,NNE,22,1.6,9.3,94,0.00,,,0.00,Rainwise IP-100,2013-07-12 17:07:00,
2013-07-12 13:12:00,71.9,70.0,30.12,NW,315,7.5,13.8,94,0.00,,,0.00,Rainwise IP-100,2013-07-12 17:12:00,
2013-07-12 13:17:00,71.4,69.3,30.12,NNW,337,0.0,9.1,94,0.00,,,0.00,Rainwise IP-100,2013-07-12 17:17:00,
2013-07-12 13:22:00,71.3,69.7,30.12,WNW,292,5.8,9.3,95,0.00,,,0.00,Rainwise IP-100,2013-07-12 17:22:00,
2013-07-12 13:27:00,71.4,70.0,30.12,NNE,22,0.0,13.1,96,0.00,,,0.00,Rainwise IP-100,2013-07-12 17:27:00,
2013-07-12 13:32:00,71.4,70.0,30.12,NNW,337,0.0,8.2,96,0.00,,,0.00,Rainwise IP-100,2013-07-12 17:32:00,
2013-07-12 13:37:00,71.4,70.0,30.12,North,360,5.8,10.5,96,0.00,,,0.00,Rainwise IP-100,2013-07-12 17:37:00,
2013-07-12 13:42:00,71.5,70.5,30.12,NNE,22,2.3,7.2,96,0.00,,,0.00,Rainwise IP-100,2013-07-12 17:42:00,
2013-07-12 13:47:00,71.5,70.5,30.12,NNE,22,3.5,10.0,96,0.00,,,0.00,Rainwise IP-100,2013-07-12 17:47:00,
2013-07-12 13:52:00,71.6,70.0,30.13,NW,315,1.9,13.8,95,0.00,,,0.00,Rainwise IP-100,2013-07-12 17:52:00,
2013-07-12 13:57:00,71.7,70.0,30.12,WNW,292,4.2,10.0,95,0.00,,,0.00,Rainwise IP-100,2013-07-12 17:57:00,
2013-07-12 14:02:00,71.8,70.0,30.13,East,90,2.3,6.1,95,0.00,,,0.00,Rainwise IP-100,2013-07-12 18:02:00,
2013-07-12 14:07:00,71.9,70.5,30.13,NNE,22,3.0,7.2,95,0.00,,,0.00,Rainwise IP-100,2013-07-12 18:07:00,
2013-07-12 14:12:00,71.8,69.7,30.14,NNE,22,4.4,8.6,94,0.00,,,0.00,Rainwise IP-100,2013-07-12 18:12:00,
2013-07-12 14:17:00,71.7,69.7,30.13,East,90,3.5,7.2,94,0.00,,,0.00,Rainwise IP-100,2013-07-12 18:17:00,
2013-07-12 14:22:00,71.8,69.7,30.13,NNE,22,4.4,10.0,94,0.00,,,0.00,Rainwise IP-100,2013-07-12 18:22:00,
2013-07-12 14:27:00,71.9,69.7,30.13,WSW,247,2.3,7.7,93,0.00,,,0.00,Rainwise IP-100,2013-07-12 18:27:00,
2013-07-12 14:32:00,72.1,69.7,30.14,NNE,22,2.8,11.0,93,0.00,,,0.00,Rainwise IP-100,2013-07-12 18:32:00,
2013-07-12 14:37:00,72.3,70.0,30.14,ENE,67,4.2,8.2,92,0.00,,,0.00,Rainwise IP-100,2013-07-12 18:37:00,
2013-07-12 14:42:00,72.2,70.0,30.13,ENE,67,8.2,8.2,92,0.00,,,0.00,Rainwise IP-100,2013-07-12 18:42:00,
2013-07-12 14:47:00,72.1,69.7,30.14,ESE,112,2.1,12.6,92,0.00,,,0.00,Rainwise IP-100,2013-07-12 18:47:00,
2013-07-12 14:52:00,72.1,69.3,30.14,NNW,337,4.7,11.2,91,0.00,,,0.00,Rainwise IP-100,2013-07-12 18:52:00,
2013-07-12 14:57:00,72.4,69.7,30.14,NNE,22,3.7,7.7,91,0.00,,,0.00,Rainwise IP-100,2013-07-12 18:57:00,
2013-07-12 15:02:00,72.7,69.7,30.14,NNE,22,1.6,8.2,90,0.00,,,0.00,Rainwise IP-100,2013-07-12 19:02:00,
2013-07-12 15:07:00,72.7,69.3,30.14,NNE,22,1.6,6.8,89,0.00,,,0.00,Rainwise IP-100,2013-07-12 19:07:00,
2013-07-12 15:12:00,72.7,69.3,30.14,NW,315,6.5,6.5,89,0.00,,,0.00,Rainwise IP-100,2013-07-12 19:12:00,
2013-07-12 15:17:00,72.8,69.3,30.14,WNW,292,0.0,9.3,89,0.00,,,0.00,Rainwise IP-100,2013-07-12 19:17:00,
2013-07-12 15:22:00,72.6,69.0,30.14,NNE,22,4.4,8.9,88,0.00,,,0.00,Rainwise IP-100,2013-07-12 19:22:00,
2013-07-12 15:27:00,72.5,69.0,30.14,WNW,292,1.9,7.2,88,0.00,,,0.00,Rainwise IP-100,2013-07-12 19:27:00,
2013-07-12 15:32:00,72.6,69.0,30.14,ENE,67,0.0,8.2,88,0.00,,,0.00,Rainwise IP-100,2013-07-12 19:32:00,
2013-07-12 15:37:00,72.5,69.0,30.14,NNE,22,0.0,10.0,88,0.00,,,0.00,Rainwise IP-100,2013-07-12 19:37:00,
2013-07-12 15:42:00,72.4,68.5,30.14,East,90,0.0,6.5,88,0.00,,,0.00,Rainwise IP-100,2013-07-12 19:42:00,
2013-07-12 15:47:00,72.5,69.0,30.15,NE,45,0.0,5.1,88,0.00,,,0.00,Rainwise IP-100,2013-07-12 19:47:00,
2013-07-12 15:52:00,72.6,69.0,30.15,NNE,22,1.6,9.6,88,0.00,,,0.00,Rainwise IP-100,2013-07-12 19:52:00,
2013-07-12 15:57:00,72.0,68.5,30.15,WNW,292,6.3,12.8,88,0.00,,,0.00,Rainwise IP-100,2013-07-12 19:57:00,
2013-07-12 16:02:00,71.5,68.0,30.15,ESE,112,1.9,11.0,88,0.00,,,0.00,Rainwise IP-100,2013-07-12 20:02:00,
2013-07-12 16:07:00,71.7,68.0,30.16,ENE,67,3.7,7.5,88,0.00,,,0.00,Rainwise IP-100,2013-07-12 20:07:00,
2013-07-12 16:12:00,72.0,68.5,30.14,NNW,337,7.7,14.0,88,0.00,,,0.00,Rainwise IP-100,2013-07-12 20:12:00,
2013-07-12 16:17:00,72.3,68.5,30.15,ENE,67,2.6,11.9,88,0.00,,,0.00,Rainwise IP-100,2013-07-12 20:17:00,
2013-07-12 16:22:00,72.4,68.5,30.15,ESE,112,2.8,7.5,87,0.00,,,0.00,Rainwise IP-100,2013-07-12 20:22:00,
2013-07-12 16:27:00,72.4,68.5,30.15,NNW,337,0.0,8.9,87,0.00,,,0.00,Rainwise IP-100,2013-07-12 20:27:00,
2013-07-12 16:32:00,72.3,68.5,30.15,WNW,292,6.3,8.9,87,0.00,,,0.00,Rainwise IP-100,2013-07-12 20:32:00,
2013-07-12 16:37:00,72.3,68.5,30.15,North,360,1.9,12.4,87,0.00,,,0.00,Rainwise IP-100,2013-07-12 20:37:00,
2013-07-12 16:42:00,72.6,68.5,30.15,NNE,22,2.1,9.3,87,0.00,,,0.00,Rainwise IP-100,2013-07-12 20:42:00,
2013-07-12 16:47:00,72.7,68.5,30.16,NNE,22,0.0,8.4,86,0.00,,,0.00,Rainwise IP-100,2013-07-12 20:47:00,
2013-07-12 16:52:00,73.0,69.0,30.15,East,90,0.0,4.9,86,0.00,,,0.00,Rainwise IP-100,2013-07-12 20:52:00,
2013-07-12 16:57:00,73.1,69.0,30.15,NNW,337,4.7,9.6,86,0.00,,,0.00,Rainwise IP-100,2013-07-12 20:57:00,
2013-07-12 17:02:00,73.0,68.5,30.15,ENE,67,10.0,11.9,85,0.00,,,0.00,Rainwise IP-100,2013-07-12 21:02:00,
2013-07-12 17:07:00,72.9,68.5,30.15,ENE,67,4.7,10.3,85,0.00,,,0.00,Rainwise IP-100,2013-07-12 21:07:00,
2013-07-12 17:12:00,73.0,68.5,30.15,NE,45,0.0,8.2,85,0.00,,,0.00,Rainwise IP-100,2013-07-12 21:12:00,
2013-07-12 17:17:00,72.8,68.5,30.15,East,90,2.1,10.5,86,0.00,,,0.00,Rainwise IP-100,2013-07-12 21:17:00,
2013-07-12 17:22:00,72.3,68.0,30.15,NNE,22,4.2,7.9,86,0.00,,,0.00,Rainwise IP-100,2013-07-12 21:22:00,
2013-07-12 17:27:00,72.0,68.0,30.15,WNW,292,0.0,8.6,87,0.00,,,0.00,Rainwise IP-100,2013-07-12 21:27:00,
2013-07-12 17:32:00,71.9,68.0,30.15,ESE,112,0.0,8.6,87,0.00,,,0.00,Rainwise IP-100,2013-07-12 21:32:00,
2013-07-12 17:37:00,71.8,68.0,30.15,NNW,337,2.8,10.0,88,0.00,,,0.00,Rainwise IP-100,2013-07-12 21:37:00,
2013-07-12 17:42:00,71.6,68.0,30.15,ESE,112,1.4,6.8,88,0.00,,,0.00,Rainwise IP-100,2013-07-12 21:42:00,
2013-07-12 17:47:00,71.4,67.5,30.15,ENE,67,1.9,6.5,88,0.00,,,0.00,Rainwise IP-100,2013-07-12 21:47:00,
2013-07-12 17:52:00,71.3,68.0,30.16,NNE,22,0.0,5.8,89,0.00,,,0.00,Rainwise IP-100,2013-07-12 21:52:00,
2013-07-12 17:57:00,71.2,68.0,30.16,North,360,2.6,7.2,90,0.00,,,0.00,Rainwise IP-100,2013-07-12 21:57:00,
2013-07-12 18:02:00,71.1,67.5,30.16,ESE,112,1.6,4.2,90,0.00,,,0.00,Rainwise IP-100,2013-07-12 22:02:00,
2013-07-12 18:07:00,71.0,67.5,30.16,WNW,292,0.0,6.3,90,0.00,,,0.00,Rainwise IP-100,2013-07-12 22:07:00,
2013-07-12 18:12:00,70.9,67.5,30.15,NNW,337,2.1,6.5,90,0.00,,,0.00,Rainwise IP-100,2013-07-12 22:12:00,
2013-07-12 18:17:00,70.7,67.5,30.16,ENE,67,2.1,5.6,90,0.00,,,0.00,Rainwise IP-100,2013-07-12 22:17:00,
2013-07-12 18:22:00,70.5,67.5,30.16,ENE,67,3.3,4.7,91,0.00,,,0.00,Rainwise IP-100,2013-07-12 22:22:00,
2013-07-12 18:27:00,70.4,67.5,30.16,ESE,112,2.3,5.8,91,0.00,,,0.00,Rainwise IP-100,2013-07-12 22:27:00,
2013-07-12 18:32:00,70.2,67.0,30.16,East,90,2.8,6.3,91,0.00,,,0.00,Rainwise IP-100,2013-07-12 22:32:00,
2013-07-12 18:37:00,70.0,67.0,30.16,ESE,112,2.3,6.8,91,0.00,,,0.00,Rainwise IP-100,2013-07-12 22:37:00,
2013-07-12 18:42:00,69.8,67.0,30.17,NW,315,2.1,5.4,92,0.00,,,0.00,Rainwise IP-100,2013-07-12 22:42:00,
2013-07-12 18:47:00,69.8,67.0,30.17,ESE,112,2.3,7.9,92,0.00,,,0.00,Rainwise IP-100,2013-07-12 22:47:00,
2013-07-12 18:52:00,69.7,67.0,30.17,ENE,67,0.0,7.0,92,0.00,,,0.00,Rainwise IP-100,2013-07-12 22:52:00,
2013-07-12 18:57:00,69.5,67.0,30.17,NNE,22,0.0,6.5,92,0.00,,,0.00,Rainwise IP-100,2013-07-12 22:57:00,
2013-07-12 19:02:00,69.4,66.7,30.18,East,90,2.8,8.6,92,0.00,,,0.00,Rainwise IP-100,2013-07-12 23:02:00,
2013-07-12 19:07:00,69.3,66.7,30.18,ENE,67,1.9,5.8,92,0.00,,,0.00,Rainwise IP-100,2013-07-12 23:07:00,
2013-07-12 19:12:00,69.1,66.3,30.18,East,90,1.9,6.3,92,0.00,,,0.00,Rainwise IP-100,2013-07-12 23:12:00,
2013-07-12 19:17:00,69.0,66.3,30.18,East,90,1.6,7.0,92,0.00,,,0.00,Rainwise IP-100,2013-07-12 23:17:00,
2013-07-12 19:22:00,69.0,66.3,30.18,NNW,337,0.0,4.4,92,0.00,,,0.00,Rainwise IP-100,2013-07-12 23:22:00,
2013-07-12 19:27:00,69.0,66.7,30.18,ENE,67,3.3,4.7,93,0.00,,,0.00,Rainwise IP-100,2013-07-12 23:27:00,
2013-07-12 19:32:00,69.0,66.7,30.18,ENE,67,4.7,4.7,93,0.00,,,0.00,Rainwise IP-100,2013-07-12 23:32:00,
2013-07-12 19:37:00,68.9,66.7,30.18,NNW,337,3.0,5.1,93,0.00,,,0.00,Rainwise IP-100,2013-07-12 23:37:00,
2013-07-12 19:42:00,68.9,66.7,30.19,ENE,67,1.6,5.4,93,0.00,,,0.00,Rainwise IP-100,2013-07-12 23:42:00,
2013-07-12 19:47:00,68.9,66.7,30.19,NNE,22,1.2,5.6,93,0.00,,,0.00,Rainwise IP-100,2013-07-12 23:47:00,
2013-07-12 19:52:00,68.8,66.7,30.18,East,90,2.6,4.4,93,0.00,,,0.00,Rainwise IP-100,2013-07-12 23:52:00,
2013-07-12 19:57:00,68.7,66.3,30.18,ENE,67,3.3,6.1,93,0.00,,,0.00,Rainwise IP-100,2013-07-12 23:57:00,
2013-07-12 20:02:00,68.6,66.3,30.18,NNE,22,0.0,4.9,93,0.00,,,0.00,Rainwise IP-100,2013-07-13 00:02:00,
2013-07-12 20:07:00,68.5,66.7,30.18,ENE,67,0.0,9.1,94,0.00,,,0.00,Rainwise IP-100,2013-07-13 00:07:00,
2013-07-12 20:12:00,68.5,66.7,30.18,ESE,112,2.8,4.7,94,0.00,,,0.00,Rainwise IP-100,2013-07-13 00:12:00,
2013-07-12 20:17:00,68.5,66.7,30.18,ENE,67,2.6,4.7,94,0.00,,,0.00,Rainwise IP-100,2013-07-13 00:17:00,
2013-07-12 20:22:00,68.4,66.7,30.18,ENE,67,1.4,5.6,94,0.00,,,0.00,Rainwise IP-100,2013-07-13 00:22:00,
2013-07-12 20:27:00,68.3,66.7,30.18,ENE,67,1.9,8.2,94,0.00,,,0.00,Rainwise IP-100,2013-07-13 00:27:00,
2013-07-12 20:32:00,68.3,66.7,30.18,NE,45,2.3,3.5,94,0.00,,,0.00,Rainwise IP-100,2013-07-13 00:32:00,
2013-07-12 20:37:00,68.3,67.0,30.18,NNE,22,0.0,4.2,95,0.00,,,0.00,Rainwise IP-100,2013-07-13 00:37:00,
2013-07-12 20:42:00,68.3,67.0,30.19,ENE,67,1.4,2.8,95,0.00,,,0.00,Rainwise IP-100,2013-07-13 00:42:00,
2013-07-12 20:47:00,68.4,67.0,30.19,ENE,67,0.0,3.3,95,0.00,,,0.00,Rainwise IP-100,2013-07-13 00:47:00,
2013-07-12 20:52:00,68.5,67.0,30.19,NE,45,1.4,2.3,95,0.00,,,0.00,Rainwise IP-100,2013-07-13 00:52:00,
2013-07-12 20:57:00,68.5,67.0,30.20,NE,45,1.2,2.6,95,0.00,,,0.00,Rainwise IP-100,2013-07-13 00:57:00,
2013-07-12 21:02:00,68.7,67.0,30.20,ENE,67,1.6,2.6,95,0.00,,,0.00,Rainwise IP-100,2013-07-13 01:02:00,
2013-07-12 21:07:00,68.8,67.5,30.20,NNE,22,0.0,4.2,96,0.00,,,0.00,Rainwise IP-100,2013-07-13 01:07:00,
2013-07-12 21:12:00,68.8,67.5,30.20,NE,45,1.4,3.3,96,0.00,,,0.00,Rainwise IP-100,2013-07-13 01:12:00,
2013-07-12 21:17:00,68.9,67.5,30.20,ENE,67,1.4,2.6,96,0.00,,,0.00,Rainwise IP-100,2013-07-13 01:17:00,
2013-07-12 21:22:00,68.9,67.5,30.21,ENE,67,2.1,3.5,96,0.00,,,0.00,Rainwise IP-100,2013-07-13 01:22:00,
2013-07-12 21:27:00,69.0,67.5,30.20,ENE,67,3.7,3.7,96,0.00,,,0.00,Rainwise IP-100,2013-07-13 01:27:00,
2013-07-12 21:32:00,69.0,67.5,30.21,ENE,67,0.0,3.7,96,0.00,,,0.00,Rainwise IP-100,2013-07-13 01:32:00,
2013-07-12 21:37:00,69.1,67.5,30.21,ENE,67,1.4,2.6,96,0.00,,,0.00,Rainwise IP-100,2013-07-13 01:37:00,
2013-07-12 21:42:00,69.2,68.0,30.21,ENE,67,1.6,5.4,96,0.00,,,0.00,Rainwise IP-100,2013-07-13 01:42:00,
2013-07-12 21:47:00,69.0,67.5,30.21,East,90,0.0,6.5,96,0.00,,,0.00,Rainwise IP-100,2013-07-13 01:47:00,
2013-07-12 21:52:00,68.9,67.5,30.21,ENE,67,2.1,3.5,96,0.00,,,0.00,Rainwise IP-100,2013-07-13 01:52:00,
2013-07-12 21:57:00,69.0,67.5,30.21,ENE,67,2.3,4.9,96,0.00,,,0.00,Rainwise IP-100,2013-07-13 01:57:00,
2013-07-12 22:02:00,69.0,67.5,30.21,ENE,67,2.3,4.4,96,0.00,,,0.00,Rainwise IP-100,2013-07-13 02:02:00,
2013-07-12 22:07:00,68.9,67.5,30.21,ESE,112,1.6,5.6,96,0.00,,,0.00,Rainwise IP-100,2013-07-13 02:07:00,
2013-07-12 22:12:00,69.0,68.0,30.21,ENE,67,7.0,7.0,97,0.00,,,0.00,Rainwise IP-100,2013-07-13 02:12:00,
2013-07-12 22:15:00,69.0,68.0,30.21,East,90,4.9,7.2,97,0.00,,,0.00,Rainwise IP-100,2013-07-13 02:15:00,
2013-07-12 22:20:00,69.0,68.0,30.21,North,360,0.0,7.5,97,0.00,,,0.00,Rainwise IP-100,2013-07-13 02:20:00,
2013-07-12 22:25:00,68.9,68.0,30.21,East,90,2.8,6.8,97,0.00,,,0.00,Rainwise IP-100,2013-07-13 02:25:00,
2013-07-12 22:30:00,68.9,68.0,30.21,East,90,4.9,6.1,97,0.00,,,0.00,Rainwise IP-100,2013-07-13 02:30:00,
2013-07-12 22:35:00,68.9,68.0,30.21,ENE,67,3.7,7.0,97,0.00,,,0.00,Rainwise IP-100,2013-07-13 02:35:00,
2013-07-12 22:40:00,68.9,68.5,30.21,ENE,67,4.0,6.5,98,0.00,,,0.00,Rainwise IP-100,2013-07-13 02:40:00,
2013-07-12 22:45:00,68.9,68.5,30.22,East,90,1.9,7.0,98,0.00,,,0.00,Rainwise IP-100,2013-07-13 02:45:00,
2013-07-12 22:50:00,68.9,68.5,30.22,ESE,112,2.1,8.9,98,0.00,,,0.00,Rainwise IP-100,2013-07-13 02:50:00,
2013-07-12 22:55:00,68.9,68.5,30.22,ENE,67,5.4,5.8,98,0.00,,,0.00,Rainwise IP-100,2013-07-13 02:55:00,
2013-07-12 23:00:00,68.9,68.5,30.22,ENE,67,1.6,5.6,99,0.00,,,0.00,Rainwise IP-100,2013-07-13 03:00:00,
2013-07-12 23:05:00,69.0,68.5,30.22,ENE,67,2.1,5.6,99,0.00,,,0.00,Rainwise IP-100,2013-07-13 03:05:00,
2013-07-12 23:10:00,69.0,68.5,30.22,East,90,3.5,8.2,99,0.00,,,0.00,Rainwise IP-100,2013-07-13 03:10:00,
2013-07-12 23:15:00,69.1,68.5,30.22,East,90,3.0,5.1,99,0.00,,,0.00,Rainwise IP-100,2013-07-13 03:15:00,
2013-07-12 23:20:00,69.2,69.0,30.22,East,90,2.8,6.3,99,0.00,,,0.00,Rainwise IP-100,2013-07-13 03:20:00,
2013-07-12 23:25:00,69.3,69.0,30.22,East,90,3.5,6.8,99,0.00,,,0.00,Rainwise IP-100,2013-07-13 03:25:00,
2013-07-12 23:30:00,69.4,69.0,30.22,East,90,2.8,5.4,99,0.00,,,0.00,Rainwise IP-100,2013-07-13 03:30:00,
2013-07-12 23:35:00,69.3,69.0,30.22,East,90,2.8,4.9,99,0.00,,,0.00,Rainwise IP-100,2013-07-13 03:35:00,
2013-07-12 23:40:00,69.3,69.0,30.22,ESE,112,2.3,5.8,99,0.00,,,0.00,Rainwise IP-100,2013-07-13 03:40:00,
2013-07-12 23:45:00,69.3,69.0,30.22,East,90,2.3,5.8,99,0.00,,,0.00,Rainwise IP-100,2013-07-13 03:45:00,
2013-07-12 23:50:00,69.4,69.0,30.22,East,90,4.9,6.5,99,0.00,,,0.00,Rainwise IP-100,2013-07-13 03:50:00,
2013-07-12 23:55:00,69.5,69.3,30.22,ENE,67,4.9,5.8,99,0.00,,,0.00,Rainwise IP-100,2013-07-13 03:55:00,